STARLINK-4429, 53495

Orbit data source: Space-Track

STARLINK-4429, 53495 is a payload satellite owned by SpaceX/Seattle (US) in SSO that was launched on Fri, 12 Aug 2022 UTC via an FALCON 9 launch vehicle from the Air Force Western Test Range (AFWTR). Payload-class satellites include a variety of spacecraft equipped with specific instruments for various scientific and technological missions. These include communications satellites like Starlink; space stations such as the ISS; scientific satellites like the Hubble; Earth observation satellites from companies like Planet Labs, Umbra, and HawkEye 360; GPS; miniature CubeSats for education and research; and military/defense satellites.

Loading next visibility...
Identifier
53495, 2022-099AG
Orbit
SSO
Country
Flag of USUS
Related business
Manufacturer
SpaceX/Seattle
Mission
Operational Commercial Communications
Bus & Motor
STARLINK, Unknown motor
Mass
300 kg wet, ~275 kg dry
Launch date (UTC)
2022-08-12 (3 years ago)
Launch vehicle
FALCON 9
Launch site
Air Force Western Test Range (AFWTR)
Object type
Payload
Rocket body
Debris
Shape & HBR
Box + 1 Pan, 4.4 m
Radar Cross Section
13.562 m², Large (>1 m²)

Expand to show TLE details & history
Last TLE update: 17 hours ago

TLE from 17 hours ago
0 STARLINK-4429
1 53495U 22099AG  25258.91886247  .00000498  00000-0  43313-4 0  9994
2 53495  97.6018  19.1109 0000437 192.1006 168.0208 15.01263275169769
Epoch: 2025-09-15T22:03Z
TLE epoch observation values (Epoch: 2025-09-15T22:03:09.717Z)
Latitude
-0.00001°
Longitude
53.2038°
Altitude
566.356 km
Speed
7.578 km/s
True Right ascension
01h 16m 26s
True Declination
0° 00' 00"
Sunlit
Object was in full shadow at epoch
Visualization orbit readout
Latitude
Unknown
Longitude
Unknown
Altitude
Unknown
Speed
Unknown
Apparent Right ascension
Unknown
Apparent Declination
Unknown
Sunlit
N/A
Visualization observer readout
Local Sidereal Time
08:13:13
Azimuth
Unknown
Elevation
Unknown
Doppler factor
Unknown
Orbital elements
Apogee altitude
560.302 km
Perigee altitude
559.696 km
Semi-major axis
6,938.136 km
Eccentricity
0.00004
Inclination
97.6018°
RAAN
19.1109°
Arg. of periapsis
192.1006°
True anomaly
168.02184°
Mean anomaly
168.0208°
Eccentric anomaly
168.02132°
Mean motion
3.7556 °/min
Orbital period
95.86 mins
BSTAR
0.000043313
Loading maneuver chart data...
Computing Atmospheric mass density...
Loading historical data...
Loading historical data...
Loading historical data...
Loading historical data...
Loading historical data...
Loading historical data...
Loading historical data...

Documentation

Showing up to 5 results
|